| time (UTC) | temp F | wind direction | speed MPH | gust MPH | rain 1hr in | rain 24hr in | rain mn in | humidity % | barometer mb |
| 20260510073015 | 47 | 160 | 0.0 | 0.0 | 0.00 | 0.45 | 0.00 | 95 | 1009.9 |
| 20260510071549 | 47 | 159 | 0.0 | 0.0 | 0.00 | 0.45 | 0.00 | 95 | 1009.9 |
| 20260510070035 | 47 | 174 | 0.0 | 0.0 | 0.00 | 0.45 | 0.00 | 95 | 1010.3 |
| 20260510064532 | 47 | 148 | 0.0 | 0.0 | 0.00 | 0.45 | 0.00 | 95 | 1010.5 |
| 20260510063050 | 48 | 225 | 0.0 | 0.0 | 0.00 | 0.45 | 0.00 | 95 | 1010.6 |
| 20260510061526 | 47 | 167 | 0.0 | 0.0 | 0.00 | 0.45 | 0.00 | 95 | 1010.8 |
| 20260510060008 | 47 | 115 | 0.0 | 0.0 | 0.00 | 0.45 | 0.00 | 95 | 1010.7 |
| 20260510054544 | 47 | 113 | 0.0 | 0.0 | 0.00 | 0.45 | 0.00 | 95 | 1011.0 |
| 20260510053036 | 47 | 216 | 0.0 | 0.0 | 0.00 | 0.45 | 0.00 | 95 | 1011.1 |
| 20260510051557 | 47 | 182 | 0.0 | 0.0 | 0.00 | 0.45 | 0.00 | 95 | 1011.2 |
| 20260510050039 | 46 | 207 | 0.0 | 0.0 | 0.00 | 0.45 | 0.00 | 95 | 1011.1 |
| 20260510044511 | 46 | 207 | 0.0 | 0.0 | 0.00 | 0.45 | 0.00 | 94 | 1011.1 |
| 20260510043048 | 46 | 236 | 0.0 | 0.0 | 0.00 | 0.45 | 0.00 | 94 | 1011.3 |
| 20260510041524 | 46 | 276 | 0.0 | 0.0 | 0.00 | 0.45 | 0.00 | 94 | 1011.5 |
| 20260510040007 | 46 | 276 | 0.0 | 0.0 | 0.00 | 0.45 | 0.45 | 94 | 1011.5 |
| 20260510034559 | 46 | 276 | 0.0 | 0.0 | 0.00 | 0.45 | 0.45 | 94 | 1011.7 |
| 20260510033020 | 46 | 277 | 0.0 | 0.0 | 0.00 | 0.45 | 0.45 | 95 | 1011.8 |
| 20260510031555 | 46 | 360 | 0.0 | 0.0 | 0.01 | 0.45 | 0.45 | 94 | 1011.9 |
| 20260510030034 | 46 | 360 | 0.0 | 0.0 | 0.02 | 0.45 | 0.45 | 94 | 1012.0 |
| 20260510024509 | 45 | 360 | 0.0 | 0.0 | 0.02 | 0.45 | 0.45 | 94 | 1012.0 |
| 20260510023048 | 45 | 360 | 0.0 | 0.0 | 0.02 | 0.45 | 0.45 | 94 | 1012.1 |
| 20260510021529 | 45 | 360 | 0.0 | 0.0 | 0.02 | 0.44 | 0.44 | 94 | 1012.0 |
| 20260510020007 | 45 | 360 | 0.0 | 0.0 | 0.01 | 0.43 | 0.43 | 94 | 1012.2 |
| 20260510014551 | 45 | 360 | 0.0 | 0.0 | 0.02 | 0.43 | 0.43 | 94 | 1012.1 |
| 20260510013022 | 45 | 360 | 0.0 | 0.0 | 0.02 | 0.43 | 0.43 | 94 | 1012.2 |
| 20260510011601 | 45 | 63 | 0.0 | 0.0 | 0.02 | 0.42 | 0.42 | 94 | 1011.8 |
| 20260510010039 | 45 | 106 | 0.0 | 0.0 | 0.04 | 0.42 | 0.42 | 94 | 1011.7 |
| 20260510004514 | 44 | 182 | 0.0 | 0.0 | 0.04 | 0.41 | 0.41 | 94 | 1011.8 |
| 20260510003104 | 44 | 100 | 0.0 | 0.0 | 0.05 | 0.41 | 0.41 | 94 | 1011.6 |
| 20260510001527 | 44 | 79 | 0.0 | 0.0 | 0.04 | 0.39 | 0.39 | 93 | 1011.9 |
| 20260510000003 | 44 | 74 | 0.0 | 0.0 | 0.05 | 0.38 | 0.38 | 93 | 1012.0 |
| 20260509234542 | 44 | 75 | 0.0 | 0.0 | 0.04 | 0.37 | 0.37 | 93 | 1012.1 |
| 20260509233021 | 44 | 109 | 0.0 | 0.0 | 0.04 | 0.35 | 0.35 | 93 | 1011.9 |
| 20260509231616 | 44 | 101 | 0.0 | 0.0 | 0.05 | 0.35 | 0.35 | 93 | 1011.8 |
| 20260509230033 | 44 | 184 | 0.0 | 0.0 | 0.05 | 0.33 | 0.33 | 93 | 1011.9 |
| 20260509224521 | 44 | 86 | 0.0 | 0.0 | 0.06 | 0.33 | 0.33 | 93 | 1011.9 |
| 20260509223010 | 44 | 69 | 1.0 | 7.0 | 0.05 | 0.31 | 0.31 | 92 | 1012.0 |
| 20260509221551 | 44 | 80 | 0.0 | 3.0 | 0.05 | 0.30 | 0.30 | 92 | 1012.2 |
| 20260509220026 | 44 | 94 | 0.0 | 0.0 | 0.04 | 0.28 | 0.28 | 92 | 1012.5 |
| 20260509214605 | 44 | 119 | 0.0 | 0.0 | 0.03 | 0.27 | 0.27 | 92 | 1012.6 |
| 20260509213039 | 45 | 113 | 0.0 | 0.0 | 0.03 | 0.26 | 0.26 | 92 | 1013.0 |
| 20260509211519 | 45 | 103 | 0.0 | 0.0 | 0.02 | 0.25 | 0.25 | 92 | 1013.0 |
| 20260509210056 | 45 | 117 | 1.0 | 7.0 | 0.01 | 0.24 | 0.24 | 91 | 1013.1 |
| 20260509204529 | 46 | 80 | 0.0 | 4.0 | 0.02 | 0.24 | 0.24 | 92 | 1012.7 |
| 20260509203026 | 46 | 121 | 0.0 | 2.0 | 0.02 | 0.23 | 0.23 | 92 | 1012.8 |
| 20260509201554 | 45 | 92 | 1.0 | 8.0 | 0.03 | 0.23 | 0.23 | 92 | 1012.3 |
| 20260509200033 | 45 | 105 | 0.0 | 3.0 | 0.05 | 0.23 | 0.23 | 91 | 1013.4 |
| 20260509194558 | 45 | 116 | 0.0 | 2.0 | 0.06 | 0.22 | 0.22 | 91 | 1013.6 |
| 20260509193038 | 45 | 184 | 0.0 | 2.0 | 0.08 | 0.21 | 0.21 | 91 | 1013.8 |
| 20260509191512 | 45 | 112 | 0.0 | 5.0 | 0.09 | 0.20 | 0.20 | 91 | 1013.6 |
| 20260509190051 | 45 | 159 | 0.0 | 6.0 | 0.09 | 0.18 | 0.18 | 90 | 1013.7 |
| 20260509184532 | 45 | 152 | 0.0 | 5.0 | 0.10 | 0.16 | 0.16 | 89 | 1014.2 |
| 20260509183009 | 45 | 187 | 0.0 | 0.0 | 0.09 | 0.13 | 0.13 | 89 | 1014.1 |
| 20260509181549 | 45 | 146 | 0.0 | 0.0 | 0.08 | 0.11 | 0.11 | 89 | 1014.1 |
| 20260509180023 | 46 | 215 | 0.0 | 2.0 | 0.08 | 0.09 | 0.09 | 87 | 1014.2 |
| 20260509174601 | 46 | 186 | 0.0 | 4.0 | 0.06 | 0.06 | 0.06 | 86 | 1014.0 |
| 20260509173044 | 46 | 173 | 0.0 | 2.0 | 0.04 | 0.04 | 0.04 | 84 | 1014.1 |
| 20260509171517 | 47 | 190 | 0.0 | 6.0 | 0.03 | 0.03 | 0.03 | 82 | 1013.9 |
| 20260509170053 | 48 | 156 | 0.0 | 4.0 | 0.01 | 0.01 | 0.01 | 80 | 1014.0 |
| 20260509164539 | 49 | 165 | 0.0 | 3.0 | 0.00 | 0.00 | 0.00 | 76 | 1014.1 |
| 20260509163027 | 49 | 154 | 1.0 | 7.0 | 0.00 | 0.00 | 0.00 | 75 | 1014.0 |
| 20260509161604 | 49 | 189 | 1.0 | 7.0 | 0.00 | 0.00 | 0.00 | 72 | 1014.2 |
| 20260509160038 | 50 | 234 | 2.0 | 6.0 | 0.00 | 0.00 | 0.00 | 66 | 1014.1 |
| 20260509154516 | 50 | 232 | 0.0 | 7.0 | 0.00 | 0.00 | 0.00 | 65 | 1014.1 |
| 20260509153057 | 51 | 223 | 1.0 | 7.0 | 0.00 | 0.00 | 0.00 | 58 | 1014.2 |
| 20260509151536 | 52 | 211 | 1.0 | 6.0 | 0.00 | 0.00 | 0.00 | 55 | 1014.0 |
| 20260509150021 | 53 | 119 | 0.0 | 5.0 | 0.00 | 0.00 | 0.00 | 56 | 1013.7 |
| 20260509144549 | 54 | 176 | 1.0 | 5.0 | 0.00 | 0.00 | 0.00 | 52 | 1013.4 |
| 20260509143025 | 53 | 107 | 1.0 | 6.0 | 0.00 | 0.00 | 0.00 | 55 | 1013.2 |
| 20260509141514 | 53 | 187 | 3.0 | 7.0 | 0.00 | 0.00 | 0.00 | 54 | 1013.4 |
| 20260509134541 | 54 | 224 | 1.0 | 6.0 | 0.00 | 0.00 | 0.00 | 50 | 1013.2 |
| 20260509133014 | 53 | 186 | 1.0 | 4.0 | 0.00 | 0.00 | 0.00 | 50 | 1013.4 |
| 20260509131553 | 52 | 145 | 0.0 | 5.0 | 0.00 | 0.00 | 0.00 | 48 | 1013.6 |
| 20260509130024 | 52 | 203 | 0.0 | 3.0 | 0.00 | 0.00 | 0.00 | 48 | 1013.5 |
| 20260509124559 | 50 | 145 | 0.0 | 4.0 | 0.00 | 0.00 | 0.00 | 51 | 1013.7 |
| 20260509123039 | 49 | 175 | 0.0 | 3.0 | 0.00 | 0.00 | 0.00 | 57 | 1013.8 |
| 20260509121602 | 47 | 141 | 0.0 | 2.0 | 0.00 | 0.00 | 0.00 | 58 | 1013.8 |
| 20260509120036 | 46 | 177 | 0.0 | 0.0 | 0.00 | 0.00 | 0.00 | 65 | 1013.7 |
| 20260509114511 | 42 | 114 | 0.0 | 0.0 | 0.00 | 0.00 | 0.00 | 69 | 1013.6 |
| 20260509113047 | 40 | 114 | 0.0 | 0.0 | 0.00 | 0.00 | 0.00 | 80 | 1013.7 |
| 20260509111523 | 38 | 114 | 0.0 | 0.0 | 0.00 | 0.00 | 0.00 | 86 | 1013.8 |
| 20260509110002 | 37 | 114 | 0.0 | 0.0 | 0.00 | 0.00 | 0.00 | 88 | 1013.7 |
| 20260509104540 | 36 | 114 | 0.0 | 0.0 | 0.00 | 0.00 | 0.00 | 89 | 1013.7 |
| 20260509103016 | 35 | 114 | 0.0 | 0.0 | 0.00 | 0.00 | 0.00 | 88 | 1013.4 |
| 20260509101559 | 34 | 114 | 0.0 | 0.0 | 0.00 | 0.00 | 0.00 | 87 | 1013.1 |
| 20260509100033 | 34 | 114 | 0.0 | 0.0 | 0.00 | 0.00 | 0.00 | 86 | 1013.0 |
| 20260509094520 | 34 | 114 | 0.0 | 0.0 | 0.00 | 0.00 | 0.00 | 86 | 1012.8 |
| 20260509093100 | 35 | 114 | 0.0 | 0.0 | 0.00 | 0.00 | 0.00 | 85 | 1012.6 |
| 20260509091537 | 35 | 114 | 0.0 | 0.0 | 0.00 | 0.00 | 0.00 | 84 | 1012.2 |
| 20260509090012 | 36 | 114 | 0.0 | 0.0 | 0.00 | 0.00 | 0.00 | 84 | 1012.3 |
| 20260509084551 | 36 | 114 | 0.0 | 0.0 | 0.00 | 0.00 | 0.00 | 83 | 1012.3 |
| 20260509083024 | 37 | 114 | 0.0 | 0.0 | 0.00 | 0.00 | 0.00 | 82 | 1012.4 |
| 20260509081600 | 37 | 114 | 0.0 | 0.0 | 0.00 | 0.00 | 0.00 | 80 | 1012.4 |
| 20260509080045 | 38 | 114 | 0.0 | 0.0 | 0.00 | 0.00 | 0.00 | 79 | 1012.5 |
| 20260509074534 | 39 | 114 | 0.0 | 0.0 | 0.00 | 0.00 | 0.00 | 79 | 1012.4 |